When you browse on this site, cookies collect data to enhance your experience and personalize the content and advertising you see.
Visit our Privacy Policy to learn more. By continuing to use the site, you agree to this use of cookies and data.
  • In Netherlands
  • List of Countries
  • For 7 days
  • Water Temperature
  • Weather Map
  • Weather Widgets
  • user-avatar
    Login

    Hourly Weather Sidi Bu-l-Abbas

    Today, 29 February, Saturday

    Time Temperature Precipitation Wind Pressure Humidity
    00:00 +15°C° 0 mm 1 mps 721 mmHg 42%
    01:00 +15°C° 0 mm 2 mps 721 mmHg 43%
    02:00 +14°C° 0 mm 2 mps 720 mmHg 43%
    03:00 +13°C° 0 mm 3 mps 720 mmHg 44%
    04:00 +13°C° 0 mm 3 mps 720 mmHg 44%
    05:00 +13°C° 0 mm 3 mps 720 mmHg 44%
    06:00 +13°C° 0 mm 3 mps 720 mmHg 44%
    07:00 +16°C° 0 mm 3 mps 721 mmHg 42%
    08:00 +17°C° 0 mm 3 mps 721 mmHg 40%
    09:00 +19°C° 0 mm 3 mps 722 mmHg 38%
    10:00 +20°C° 0 mm 4 mps 722 mmHg 37%
    11:00 +21°C° 0 mm 5 mps 722 mmHg 37%
    12:00 +22°C° 0 mm 6 mps 722 mmHg 36%
    13:00 +21°C° 0 mm 6 mps 721 mmHg 39%
    14:00 +21°C° 0 mm 6 mps 721 mmHg 42%
    15:00 +21°C° 0 mm 6 mps 720 mmHg 44%
    16:00 +19°C° 0 mm 5 mps 720 mmHg 51%
    17:00 +17°C° 0 mm 4 mps 720 mmHg 58%
    18:00 +14°C° 0 mm 3 mps 720 mmHg 65%
    19:00 +13°C° 0 mm 3 mps 720 mmHg 68%
    20:00 +12°C° 0 mm 3 mps 720 mmHg 72%
    21:00 +12°C° 0 mm 3 mps 721 mmHg 75%
    22:00 +12°C° 0 mm 4 mps 721 mmHg 77%
    23:00 +11°C° 0 mm 4 mps 721 mmHg 78%

    Tomorrow, 1 March, Sunday

    Time Temperature Precipitation Wind Pressure Humidity
    00:00 +11°C° 0 mm 4 mps 721 mmHg 80%
    01:00 +11°C° 0 mm 4 mps 721 mmHg 80%
    02:00 +11°C° 0 mm 3 mps 720 mmHg 79%
    03:00 +11°C° 0 mm 3 mps 720 mmHg 79%
    04:00 +11°C° 0 mm 4 mps 720 mmHg 81%
    05:00 +11°C° 0 mm 4 mps 720 mmHg 83%
    06:00 +11°C° 0 mm 4 mps 720 mmHg 85%
    07:00 +12°C° 0 mm 5 mps 721 mmHg 80%
    08:00 +14°C° 0 mm 6 mps 721 mmHg 74%
    09:00 +15°C° 0 mm 7 mps 721 mmHg 69%
    10:00 +16°C° 0 mm 7 mps 722 mmHg 64%
    11:00 +17°C° 0 mm 8 mps 722 mmHg 59%
    12:00 +18°C° 0 mm 9 mps 722 mmHg 53%
    13:00 +18°C° 0 mm 9 mps 721 mmHg 52%
    14:00 +18°C° 0 mm 9 mps 721 mmHg 51%
    15:00 +18°C° 0 mm 9 mps 721 mmHg 50%
    16:00 +16°C° 0 mm 7 mps 720 mmHg 60%
    17:00 +15°C° 0 mm 5 mps 720 mmHg 70%
    18:00 +13°C° 0 mm 4 mps 720 mmHg 81%
    19:00 +13°C° 0 mm 3 mps 721 mmHg 84%
    20:00 +12°C° 0 mm 3 mps 721 mmHg 87%
    21:00 +12°C° 0 mm 3 mps 721 mmHg 90%
    22:00 +12°C° 0 mm 2 mps 721 mmHg 88%
    23:00 +12°C° 0 mm 2 mps 720 mmHg 86%

    Day after tomorrow, 2 March, Monday

    Time Temperature Precipitation Wind Pressure Humidity
    00:00 +12°C° 0 mm 2 mps 720 mmHg 84%
    01:00 +12°C° 0 mm 2 mps 720 mmHg 83%
    02:00 +12°C° 0 mm 2 mps 719 mmHg 83%
    03:00 +11°C° 0 mm 3 mps 719 mmHg 82%
    04:00 +11°C° 0 mm 3 mps 718 mmHg 82%
    05:00 +11°C° 0 mm 3 mps 718 mmHg 82%
    06:00 +11°C° 0 mm 3 mps 718 mmHg 82%
    07:00 +13°C° 0 mm 4 mps 718 mmHg 74%
    08:00 +15°C° 0 mm 5 mps 718 mmHg 66%
    09:00 +17°C° 0 mm 6 mps 719 mmHg 58%
    10:00 +18°C° 0 mm 8 mps 719 mmHg 55%
    11:00 +19°C° 0 mm 9 mps 719 mmHg 51%
    12:00 +21°C° 0 mm 10 mps 719 mmHg 48%
    13:00 +19°C° 0 mm 10 mps 718 mmHg 49%
    14:00 +19°C° 0 mm 10 mps 718 mmHg 50%
    15:00 +19°C° 0 mm 10 mps 717 mmHg 51%
    16:00 +17°C° 0 mm 11 mps 717 mmHg 60%
    17:00 +14°C° 0 mm 11 mps 716 mmHg 69%
    18:00 +13°C° 0 mm 11 mps 716 mmHg 78%
    19:00 +12°C° 0 mm 10 mps 717 mmHg 80%
    20:00 +12°C° 0 mm 10 mps 717 mmHg 81%
    21:00 +12°C° 0 mm 9 mps 718 mmHg 83%
    22:00 +12°C° 0 mm 10 mps 718 mmHg 83%
    23:00 +12°C° 0 mm 12 mps 719 mmHg 84%

    3 March, Tuesday

    Time Temperature Precipitation Wind Pressure Humidity
    00:00 +12°C° 0 mm 13 mps 719 mmHg 84%
    01:00 +10°C° 0.1 mm 12 mps 719 mmHg 86%
    02:00 +10°C° 0.1 mm 12 mps 720 mmHg 87%
    03:00 +11°C° 0.1 mm 11 mps 720 mmHg 89%
    04:00 +10°C° 0.1 mm 9 mps 721 mmHg 88%
    05:00 +10°C° 0.1 mm 8 mps 721 mmHg 86%
    06:00 +9°C° 0.1 mm 6 mps 721 mmHg 85%
    07:00 +10°C° 0.1 mm 6 mps 722 mmHg 79%
    08:00 +10°C° 0.1 mm 6 mps 723 mmHg 72%
    09:00 +11°C° 0.1 mm 7 mps 723 mmHg 66%
    10:00 +12°C° 0 mm 8 mps 723 mmHg 61%
    11:00 +13°C° 0 mm 9 mps 724 mmHg 57%
    12:00 +14°C° 0 mm 10 mps 724 mmHg 52%
    13:00 +14°C° 0 mm 10 mps 723 mmHg 48%
    14:00 +14°C° 0 mm 11 mps 723 mmHg 45%
    15:00 +14°C° 0 mm 11 mps 722 mmHg 42%
    16:00 +13°C° 0 mm 10 mps 722 mmHg 45%
    17:00 +11°C° 0 mm 8 mps 722 mmHg 49%
    18:00 +10°C° 0 mm 7 mps 722 mmHg 52%
    19:00 +10°C° 0 mm 6 mps 723 mmHg 55%
    20:00 +9°C° 0 mm 5 mps 723 mmHg 57%
    21:00 +10°C° 0 mm 4 mps 724 mmHg 59%
    22:00 +10°C° 0 mm 4 mps 724 mmHg 55%
    23:00 +10°C° 0 mm 4 mps 724 mmHg 51%

    4 March, Wednesday

    Time Temperature Precipitation Wind Pressure Humidity
    00:00 +10°C° 0 mm 4 mps 724 mmHg 47%
    01:00 +10°C° 0 mm 4 mps 723 mmHg 47%
    02:00 +10°C° 0 mm 4 mps 723 mmHg 47%
    03:00 +10°C° 0 mm 4 mps 723 mmHg 47%
    04:00 +10°C° 0 mm 4 mps 723 mmHg 48%
    05:00 +10°C° 0 mm 4 mps 723 mmHg 49%
    06:00 +10°C° 0 mm 4 mps 722 mmHg 50%
    07:00 +12°C° 0 mm 5 mps 723 mmHg 48%
    08:00 +14°C° 0 mm 6 mps 723 mmHg 46%
    09:00 +16°C° 0 mm 7 mps 724 mmHg 44%
    10:00 +17°C° 0 mm 7 mps 724 mmHg 44%
    11:00 +18°C° 0 mm 8 mps 724 mmHg 43%
    12:00 +19°C° 0 mm 9 mps 724 mmHg 42%
    13:00 +19°C° 0 mm 9 mps 723 mmHg 43%
    14:00 +19°C° 0 mm 9 mps 723 mmHg 44%
    15:00 +18°C° 0 mm 9 mps 722 mmHg 45%
    16:00 +17°C° 0 mm 7 mps 722 mmHg 51%
    17:00 +15°C° 0 mm 5 mps 722 mmHg 58%
    18:00 +13°C° 0 mm 4 mps 722 mmHg 65%
    19:00 +13°C° 0 mm 4 mps 722 mmHg 67%
    20:00 +12°C° 0 mm 3 mps 722 mmHg 68%
    21:00 +11°C° 0 mm 3 mps 722 mmHg 70%
    22:00 +11°C° 0 mm 3 mps 722 mmHg 68%
    23:00 +11°C° 0 mm 3 mps 722 mmHg 67%

    5 March, Thursday

    Time Temperature Precipitation Wind Pressure Humidity
    00:00 +11°C° 0 mm 3 mps 722 mmHg 66%
    01:00 +12°C° 0 mm 2 mps 721 mmHg 66%
    02:00 +12°C° 0 mm 2 mps 721 mmHg 66%
    03:00 +10°C° 0 mm 2 mps 720 mmHg 66%
    04:00 +10°C° 0 mm 2 mps 720 mmHg 65%
    05:00 +10°C° 0 mm 2 mps 720 mmHg 65%
    06:00 +10°C° 0 mm 2 mps 719 mmHg 64%
    07:00 +14°C° 0 mm 2 mps 720 mmHg 56%
    08:00 +16°C° 0 mm 3 mps 720 mmHg 48%
    09:00 +19°C° 0 mm 3 mps 720 mmHg 40%
    10:00 +21°C° 0 mm 4 mps 720 mmHg 37%
    11:00 +22°C° 0 mm 5 mps 720 mmHg 34%
    12:00 +25°C° 0 mm 5 mps 719 mmHg 31%
    13:00 +23°C° 0 mm 6 mps 719 mmHg 34%
    14:00 +23°C° 0 mm 7 mps 718 mmHg 37%
    15:00 +22°C° 0 mm 8 mps 717 mmHg 39%
    16:00 +20°C° 0 mm 8 mps 717 mmHg 48%
    17:00 +17°C° 0 mm 7 mps 717 mmHg 57%
    18:00 +15°C° 0 mm 7 mps 717 mmHg 65%
    19:00 +14°C° 0 mm 7 mps 717 mmHg 67%
    20:00 +14°C° 0 mm 7 mps 718 mmHg 70%
    21:00 +12°C° 0 mm 7 mps 718 mmHg 72%
    22:00 +12°C° 0 mm 8 mps 718 mmHg 75%
    23:00 +12°C° 0 mm 8 mps 719 mmHg 78%
    Show more